Time,TemperatureF,DewpointF,PressureIn,WindDirection,WindDirectionDegrees,WindSpeedMPH,WindSpeedGustMPH,Humidity,HourlyPrecipIn,Conditions,Clouds,dailyrainin,SoftwareType,DateUTC
2013-11-01 00:12:00,38.0,26.0,-100.00,ESE,112,1.0,2.0,61,0.00,,,-99.99,,2013-11-01 07:12:00,
2013-11-01 00:21:00,36.0,25.0,-100.00,SE,138,1.0,2.0,63,0.00,,,-99.99,,2013-11-01 07:21:00,
2013-11-01 00:31:00,36.0,25.0,-100.00,SE,138,1.0,2.0,63,0.00,,,-99.99,,2013-11-01 07:31:00,
2013-11-01 00:42:00,36.0,25.0,-100.00,SE,138,1.0,2.0,63,0.00,,,-99.99,,2013-11-01 07:42:00,
2013-11-01 00:52:00,37.0,25.0,-100.00,ENE,76,2.0,3.0,61,0.00,,,-99.99,,2013-11-01 07:52:00,
2013-11-01 01:11:00,36.0,24.0,-100.00,ENE,71,4.0,5.0,61,0.00,,,-99.99,,2013-11-01 08:11:00,
2013-11-01 01:21:00,36.0,24.0,-100.00,ENE,71,4.0,5.0,61,0.00,,,-99.99,,2013-11-01 08:21:00,
2013-11-01 01:42:00,36.0,24.0,-100.00,ENE,69,5.0,5.0,61,0.00,,,-99.99,,2013-11-01 08:42:00,
2013-11-01 01:52:00,35.0,23.0,-100.00,ENE,62,1.0,3.0,62,0.00,,,-99.99,,2013-11-01 08:52:00,
2013-11-01 02:02:00,35.0,23.0,-100.00,ENE,62,1.0,3.0,62,0.00,,,-99.99,,2013-11-01 09:02:00,
2013-11-01 02:21:00,32.0,22.0,-100.00,ENE,58,0.0,1.0,67,0.00,,,-99.99,,2013-11-01 09:21:00,
2013-11-01 02:43:00,32.0,23.0,-100.00,ENE,73,1.0,2.0,68,0.00,,,-99.99,,2013-11-01 09:43:00,
2013-11-01 02:53:00,32.0,22.0,-100.00,ENE,71,2.0,3.0,66,0.00,,,-99.99,,2013-11-01 09:53:00,
2013-11-01 03:03:00,32.0,22.0,-100.00,ENE,71,2.0,3.0,66,0.00,,,-99.99,,2013-11-01 10:03:00,
2013-11-01 03:23:00,32.0,23.0,-100.00,East,83,2.0,3.0,68,0.00,,,-99.99,,2013-11-01 10:23:00,
2013-11-01 03:42:00,30.0,21.0,-100.00,ENE,72,2.0,3.0,69,0.00,,,-99.99,,2013-11-01 10:42:00,
2013-11-01 03:53:00,30.0,21.0,-100.00,East,80,1.0,2.0,69,0.00,,,-99.99,,2013-11-01 10:53:00,
2013-11-01 04:02:00,30.0,21.0,-100.00,East,80,1.0,2.0,69,0.00,,,-99.99,,2013-11-01 11:02:00,
2013-11-01 04:12:00,30.0,21.0,-100.00,East,80,1.0,2.0,69,0.00,,,-99.99,,2013-11-01 11:12:00,
2013-11-01 04:21:00,29.0,20.0,-100.00,East,100,0.0,2.0,69,0.00,,,-99.99,,2013-11-01 11:21:00,
2013-11-01 04:42:00,29.0,20.0,-100.00,East,86,1.0,3.0,68,0.00,,,-99.99,,2013-11-01 11:42:00,
2013-11-01 05:11:00,28.0,19.0,-100.00,ENE,71,1.0,2.0,68,0.00,,,-99.99,,2013-11-01 12:11:00,
2013-11-01 05:22:00,28.0,19.0,-100.00,ENE,75,1.0,2.0,68,0.00,,,-99.99,,2013-11-01 12:22:00,
2013-11-01 05:42:00,28.0,19.0,-100.00,East,92,2.0,2.0,68,0.00,,,-99.99,,2013-11-01 12:42:00,
2013-11-01 06:11:00,27.0,18.0,-100.00,East,83,1.0,2.0,68,0.00,,,-99.99,,2013-11-01 13:11:00,
2013-11-01 06:22:00,27.0,18.0,-100.00,ENE,59,3.0,5.0,68,0.00,,,-99.99,,2013-11-01 13:22:00,
2013-11-01 06:42:00,28.0,19.0,-100.00,East,97,3.0,4.0,68,0.00,,,-99.99,,2013-11-01 13:42:00,
2013-11-01 07:11:00,27.0,18.0,-100.00,ENE,76,2.0,4.0,69,0.00,,,-99.99,,2013-11-01 14:11:00,
2013-11-01 07:52:00,27.0,19.0,-100.00,ENE,68,2.0,3.0,70,0.00,,,-99.99,,2013-11-01 14:52:00,
2013-11-01 08:02:00,27.0,19.0,-100.00,ENE,68,2.0,3.0,70,0.00,,,-99.99,,2013-11-01 15:02:00,
2013-11-01 08:21:00,27.0,19.0,-100.00,East,88,1.0,3.0,71,0.00,,,-99.99,,2013-11-01 15:21:00,
2013-11-01 08:43:00,27.0,19.0,-100.00,ENE,73,3.0,4.0,72,0.00,,,-99.99,,2013-11-01 15:43:00,
2013-11-01 08:54:00,29.0,21.0,-100.00,East,82,2.0,3.0,71,0.00,,,-99.99,,2013-11-01 15:54:00,
2013-11-01 09:04:00,29.0,21.0,-100.00,East,82,2.0,3.0,71,0.00,,,-99.99,,2013-11-01 16:04:00,
2013-11-01 09:23:00,33.0,24.0,-100.00,East,97,2.0,3.0,69,0.00,,,-99.99,,2013-11-01 16:23:00,
2013-11-01 09:43:00,36.0,25.0,-100.00,ENE,73,2.0,3.0,65,0.00,,,-99.99,,2013-11-01 16:43:00,
2013-11-01 19:42:00,49.0,35.0,-100.00,East,80,2.0,3.0,58,0.00,,,-99.99,,2013-11-02 02:42:00,
2013-11-01 20:11:00,47.0,33.0,-100.00,East,93,2.0,4.0,57,0.00,,,-99.99,,2013-11-02 03:11:00,
2013-11-01 20:21:00,45.0,31.0,-100.00,East,89,3.0,3.0,57,0.00,,,-99.99,,2013-11-02 03:21:00,
2013-11-01 20:44:00,45.0,30.0,-100.00,East,79,2.0,3.0,55,0.00,,,-99.99,,2013-11-02 03:44:00,
2013-11-01 21:13:00,43.0,29.0,-100.00,ESE,110,0.0,1.0,57,0.00,,,-99.99,,2013-11-02 04:13:00,
2013-11-01 21:43:00,41.0,28.0,-100.00,ESE,102,1.0,2.0,59,0.00,,,-99.99,,2013-11-02 04:43:00,
2013-11-01 21:54:00,39.0,26.0,-100.00,NNW,342,0.0,3.0,60,0.00,,,-99.99,,2013-11-02 04:54:00,
2013-11-01 22:04:00,39.0,26.0,-100.00,NNW,342,0.0,3.0,60,0.00,,,-99.99,,2013-11-02 05:04:00,
2013-11-01 22:42:00,38.0,26.0,-100.00,East,93,1.0,2.0,62,0.00,,,-99.99,,2013-11-02 05:42:00,
2013-11-01 22:52:00,37.0,26.0,-100.00,East,99,0.0,1.0,63,0.00,,,-99.99,,2013-11-02 05:52:00,
2013-11-01 23:12:00,36.0,25.0,-100.00,ENE,69,2.0,4.0,63,0.00,,,-99.99,,2013-11-02 06:12:00,
2013-11-01 23:42:00,36.0,25.0,-100.00,NE,56,3.0,5.0,64,0.00,,,-99.99,,2013-11-02 06:42:00,
2013-11-01 23:52:00,34.0,23.0,-100.00,ENE,66,3.0,3.0,65,0.00,,,-99.99,,2013-11-02 06:52:00,